[[{"header":{"parameterUnit":"m.s-1","parameterCategory":2,"la1":30.2991,"la2":30.254,"lo1":-89.0895,"lo2":-89.0444,"dy":0.0017,"dx":0.0017,"nx":28,"ny":28,"refTime":"2025-12-11T09:00:00:Z","depth":"0","parameterNumber":2,"parameterNumberName":"U-component_of_CURRENTS"},"data":[0,0,0,0,0,0,0,0,0,0,0,0,0,0,0,0,0,0,0,0,0,0,0,0,0,0,0,0,0,0,0,0,0,0,0,0,0,0,0,0,0,0,0,0,0,0,0,0,0,0,0,0,0,0,0,0,0,0,0.1565,0.1566,0,0.16,0.16,0.1601,0.1607,0.1606,0.1606,0.1606,0.1635,0.1635,0.1636,0,0,0,0,0,0,0,0,0,0,0,0,0,0.1505,0.1506,0.1565,0.1566,0.1566,0.16,0.16,0.1601,0.1607,0.1606,0.1606,0.1606,0.1634,0.1635,0.1636,0,0,0,0,0,0,0,0,0,0,0,0,0,0.1534,0.1507,0.1565,0.1574,0.1575,0.16,0.16,0.1601,0.1607,0.1606,0.1606,0.1606,0.1634,0.1635,0.1637,0.1651,0,0,0.1641,0.1641,0,0,0,0,0,0,0,0,0.1532,0.1536,0.1572,0.1574,0.1575,0.16,0.159,0.1618,0.1607,0.1594,0.1606,0.1606,0.1623,0.1626,0.1631,0.1652,0.1653,0.1641,0.1642,0.1642,0.1643,0,0,0,0,0,0,0,0.153,0.1534,0.1578,0.1573,0.1575,0.1577,0.1581,0.1595,0.1609,0.1595,0.1596,0.1601,0.1624,0.163,0.1632,0.1654,0.1641,0.1642,0.1643,0.1644,0.1747,0.1748,0,0,0,0,0,0,0.1529,0.1533,0.1577,0.1579,0.1554,0.1578,0.1582,0.1591,0.1609,0.1611,0.1601,0.1601,0.1627,0.163,0.1633,0.1684,0.1642,0.1644,0.1645,0.1745,0.1747,0.1749,0,0,0,0,0,0,0.1527,0.1532,0.1575,0.1557,0.1563,0.158,0.159,0.1592,0.1599,0.1614,0.1616,0.1606,0.1627,0.1631,0.1657,0.1683,0.1644,0.1646,0.1742,0.1745,0.1748,0.1764,0,0,0,0,0,0,0.1525,0.1532,0.1532,0.1557,0.1564,0.159,0.159,0.1593,0.1603,0.1603,0.1618,0.1621,0.1627,0.1655,0.1659,0.1685,0.1647,0.174,0.1744,0.1747,0.1761,0.1767,0.1772,0,0,0,0,0,0.1523,0.1526,0.1532,0.1537,0.1566,0.1591,0.1594,0.1604,0.1603,0.1608,0.1626,0.162,0.1681,0.1658,0.1661,0.1688,0.1738,0.1743,0.1747,0.1759,0.1766,0.1772,0,0,0,0,0,0,0.1493,0.1528,0.1534,0.1545,0.1567,0.1592,0.1594,0.1605,0.1623,0.1622,0.1635,0.1639,0.1672,0.1683,0.1657,0.1733,0.1713,0.1718,0.1721,0.1727,0.1733,0.1712,0.1648,0,0,0,0,0,0.1489,0.1502,0.1534,0.154,0.1551,0.1573,0.1582,0.1594,0.1615,0.1622,0.1637,0.1663,0.1694,0.1711,0.1731,0.1768,0.1778,0.1793,0.1799,0.1803,0.1792,0.1847,0.1856,0.1763,0.1763,0.1763,0,0,0.1473,0.1498,0.1501,0.1535,0.155,0.157,0.1577,0.1594,0.1614,0.1623,0.1649,0.1673,0.1707,0.1748,0.1766,0.176,0.1837,0.1809,0.1812,0.1798,0.1853,0.1862,0.1869,0.1766,0.1765,0.1765,0,0,0.1459,0.1477,0.1485,0.1509,0.1541,0.1562,0.1568,0.16,0.1615,0.1647,0.1667,0.1707,0.1744,0.1782,0.1805,0.1855,0.1858,0.187,0.1886,0.1941,0.1948,0.1955,0.1978,0.1987,0.1881,0.1881,0.1881,0,0.1436,0.1459,0.1489,0.151,0.1529,0.1559,0.1575,0.16,0.1637,0.1658,0.1655,0.1737,0.1761,0.1829,0.185,0.1865,0.1885,0.1853,0.1945,0.1952,0.1959,0.1981,0.1991,0.1882,0.1882,0.1882,0.1882,0,0.1435,0.1454,0.1462,0.1502,0.1527,0.1545,0.159,0.1616,0.1639,0.1669,0.1727,0.1769,0.1819,0.1846,0.186,0.1932,0.1927,0.1938,0.192,0.1969,0.199,0.1999,0.1884,0.1884,0.1883,0.1883,0,0,0.1379,0.1446,0.1447,0.1468,0.1526,0.1545,0.1588,0.1638,0.1666,0.1711,0.1753,0.1823,0.1846,0.1874,0.1911,0.1961,0.2027,0.1968,0.197,0.1976,0.213,0.2145,0.2156,0.2057,0.2058,0.206,0.2125,0,0.1365,0.1399,0.1442,0.1472,0.1493,0.1547,0.1586,0.1638,0.1681,0.173,0.1793,0.1841,0.186,0.1889,0.1945,0.2001,0.2052,0.2006,0.2095,0.2096,0.2093,0.2169,0.2235,0.23,0.2133,0.2135,0.2136,0,0.1346,0.1377,0.1401,0.1468,0.1482,0.1506,0.1573,0.1615,0.1699,0.1733,0.1799,0.1842,0.1924,0.1931,0.205,0.202,0.2073,0.2115,0.2119,0.2129,0.213,0.2229,0.2323,0.2407,0.215,0.2149,0.2148,0,0.129,0.1348,0.1365,0.1387,0.1464,0.1486,0.153,0.1609,0.1651,0.1735,0.1769,0.1865,0.1916,0.1998,0.2084,0.2073,0.2204,0.2204,0.2267,0.2267,0.2337,0.2341,0.251,0.2293,0.2292,0.2292,0.2292,0,0.1262,0.1274,0.1338,0.1347,0.1375,0.1446,0.1485,0.1542,0.1627,0.1682,0.1764,0.1824,0.1937,0.2026,0.2094,0.221,0.222,0.2278,0.2298,0.2346,0.2349,0.2433,0.2375,0.2295,0.2294,0.2294,0.2293,0,0.1196,0.1238,0.1258,0.1326,0.1347,0.1364,0.1452,0.1489,0.1571,0.1644,0.1672,0.1804,0.1929,0.2036,0.2174,0.2228,0.2314,0.2366,0.2396,0.2419,0.2542,0.2479,0.2384,0.2343,0.2445,0.2446,0.2447,0,0.1164,0.1168,0.1221,0.1235,0.1262,0.1305,0.1343,0.1442,0.1491,0.1635,0.1669,0.1811,0.1922,0.2123,0.227,0.2408,0.2358,0.252,0.2517,0.2573,0.2519,0.2319,0.2276,0.2617,0.2619,0.2621,0.2622,0,0.1103,0.1117,0.1137,0.1164,0.1193,0.1241,0.1305,0.1339,0.1466,0.1549,0.1676,0.1775,0.2005,0.2212,0.2396,0.2483,0.2466,0.2558,0.2638,0.2681,0.2452,0.2417,0.2517,0.2638,0.2636,0.2635,0.2634,0.2633,0.1042,0.1042,0.1068,0.1093,0.1128,0.118,0.1212,0.1305,0.1397,0.1535,0.1646,0.1821,0.214,0.2433,0.2533,0.2785,0.2563,0.2841,0.2762,0.2557,0.2508,0.2616,0.2743,0.2742,0.2741,0.274,0.274,0,0.0968,0.0989,0.1006,0.1038,0.1057,0.1106,0.119,0.1234,0.1337,0.1504,0.1637,0.1999,0.2312,0.2591,0.295,0.3028,0.2892,0.3022,0.2825,0.2777,0.2968,0.298,0.314,0.314,0.314,0.314,0.3139,0.3139,0.0932,0.0926,0.0949,0.096,0.0988,0.1018,0.1062,0.1156,0.128,0.1511,0.1724,0.1902,0.2349,0.2891,0.3224,0.3213,0.3055,0.2946,0.2851,0.3121,0.3101,0.3081,0.3091,0.3271,0.3271,0.2673,0.2669,0.2666]},{"header":{"parameterUnit":"m.s-1","parameterCategory":2,"la1":30.2991,"la2":30.254,"lo1":-89.0895,"lo2":-89.0444,"dy":0.0017,"dx":0.0017,"nx":28,"ny":28,"refTime":"2025-12-11T09:00:00:Z","depth":"0","parameterNumber":3,"parameterNumberName":"V-component_of_CURRENTS"},"data":[0,0,0,0,0,0,0,0,0,0,0,0,0,0,0,0,0,0,0,0,0,0,0,0,0,0,0,0,0,0,0,0,0,0,0,0,0,0,0,0,0,0,0,0,0,0,0,0,0,0,0,0,0,0,0,0,0,0,-0.2094,-0.2094,0,-0.2123,-0.2124,-0.2124,-0.2182,-0.2183,-0.2184,-0.2185,-0.2278,-0.2279,-0.228,0,0,0,0,0,0,0,0,0,0,0,0,0,-0.2089,-0.2089,-0.2094,-0.2094,-0.2094,-0.2123,-0.2124,-0.2124,-0.2181,-0.2183,-0.2184,-0.2185,-0.2277,-0.2279,-0.2281,0,0,0,0,0,0,0,0,0,0,0,0,0,-0.2102,-0.2088,-0.2094,-0.2127,-0.213,-0.2123,-0.2124,-0.2124,-0.2181,-0.2183,-0.2185,-0.2186,-0.2277,-0.2279,-0.2281,-0.226,0,0,-0.2287,-0.2288,0,0,0,0,0,0,0,0,-0.2101,-0.2102,-0.2121,-0.2124,-0.2128,-0.215,-0.2156,-0.2173,-0.2181,-0.2162,-0.2185,-0.2187,-0.224,-0.2245,-0.2246,-0.2264,-0.2268,-0.2287,-0.2289,-0.229,-0.229,0,0,0,0,0,0,0,-0.21,-0.2101,-0.2105,-0.2122,-0.2126,-0.214,-0.2144,-0.2159,-0.2192,-0.2163,-0.2168,-0.217,-0.2242,-0.2244,-0.2249,-0.227,-0.2287,-0.2289,-0.2291,-0.2291,-0.2256,-0.2254,0,0,0,0,0,0,-0.2094,-0.21,-0.2105,-0.2106,-0.2118,-0.2139,-0.2143,-0.2141,-0.2191,-0.2199,-0.2169,-0.2173,-0.2239,-0.2246,-0.2252,-0.2217,-0.229,-0.2292,-0.2293,-0.2259,-0.2256,-0.2254,0,0,0,0,0,0,-0.2094,-0.2094,-0.2103,-0.2104,-0.2107,-0.2137,-0.2135,-0.2141,-0.2144,-0.2194,-0.2204,-0.2166,-0.2241,-0.2249,-0.225,-0.2222,-0.2293,-0.2294,-0.2261,-0.2258,-0.2255,-0.2155,0,0,0,0,0,0,-0.2093,-0.2093,-0.2086,-0.2103,-0.2106,-0.2089,-0.2133,-0.2141,-0.2143,-0.2149,-0.2194,-0.2205,-0.2243,-0.2246,-0.2252,-0.2226,-0.2296,-0.2264,-0.226,-0.2256,-0.2161,-0.2148,-0.2138,0,0,0,0,0,-0.2093,-0.2074,-0.2085,-0.2086,-0.2096,-0.2087,-0.2089,-0.2118,-0.2141,-0.2129,-0.2156,-0.2204,-0.2225,-0.2246,-0.2254,-0.2227,-0.2266,-0.2261,-0.2256,-0.2166,-0.2151,-0.2138,0,0,0,0,0,0,-0.2068,-0.2078,-0.2091,-0.2077,-0.2078,-0.2097,-0.2088,-0.2107,-0.2117,-0.2125,-0.2177,-0.2188,-0.2176,-0.2208,-0.223,-0.2202,-0.2252,-0.2248,-0.2181,-0.2167,-0.2156,-0.2142,-0.2298,0,0,0,0,0,-0.2056,-0.2044,-0.2058,-0.2042,-0.2042,-0.2062,-0.2062,-0.2077,-0.2091,-0.2098,-0.2126,-0.215,-0.2158,-0.2169,-0.2181,-0.2167,-0.2192,-0.2152,-0.2141,-0.2131,-0.2122,-0.2132,-0.2121,-0.2237,-0.2237,-0.2237,0,0,-0.2037,-0.2045,-0.2036,-0.2036,-0.2041,-0.2021,-0.2066,-0.2055,-0.2039,-0.2105,-0.2087,-0.2109,-0.2143,-0.2125,-0.2123,-0.2152,-0.2105,-0.2125,-0.2116,-0.2113,-0.2125,-0.2114,-0.2104,-0.2234,-0.2235,-0.2235,0,0,-0.199,-0.2003,-0.1975,-0.1973,-0.1975,-0.1984,-0.1977,-0.1986,-0.1992,-0.1972,-0.2013,-0.2014,-0.2028,-0.2044,-0.2055,-0.1985,-0.2041,-0.1988,-0.1926,-0.1935,-0.1926,-0.1919,-0.1918,-0.1911,-0.1987,-0.1987,-0.1987,0,-0.1971,-0.1942,-0.1963,-0.1939,-0.1932,-0.1962,-0.1929,-0.193,-0.1936,-0.1933,-0.1953,-0.1955,-0.1986,-0.1969,-0.1943,-0.196,-0.1972,-0.198,-0.1921,-0.1915,-0.1909,-0.191,-0.1904,-0.1982,-0.1982,-0.1983,-0.1983,0,-0.1904,-0.1883,-0.1865,-0.1847,-0.1839,-0.1814,-0.1823,-0.1813,-0.1823,-0.1829,-0.1809,-0.1836,-0.1848,-0.1846,-0.1874,-0.1841,-0.1864,-0.1904,-0.196,-0.1891,-0.1896,-0.1892,-0.1974,-0.1976,-0.1977,-0.1979,0,0,-0.1857,-0.1824,-0.1818,-0.1796,-0.1791,-0.1775,-0.1747,-0.173,-0.1717,-0.1712,-0.169,-0.1687,-0.1715,-0.1728,-0.1762,-0.176,-0.1723,-0.1805,-0.1809,-0.181,-0.1731,-0.1755,-0.1753,-0.1757,-0.1756,-0.1755,-0.1746,0,-0.1799,-0.1736,-0.1737,-0.1674,-0.1643,-0.1665,-0.1639,-0.1632,-0.1636,-0.1622,-0.1642,-0.1635,-0.1668,-0.1675,-0.1674,-0.1718,-0.1709,-0.1721,-0.1793,-0.1794,-0.183,-0.1748,-0.174,-0.1732,-0.1742,-0.1741,-0.1741,0,-0.1733,-0.1702,-0.1633,-0.1596,-0.1586,-0.1558,-0.1538,-0.1518,-0.1519,-0.1524,-0.1524,-0.1552,-0.1547,-0.1591,-0.1612,-0.1619,-0.1658,-0.1686,-0.1688,-0.1744,-0.181,-0.1805,-0.1724,-0.1728,-0.1734,-0.1735,-0.1735,0,-0.1688,-0.1629,-0.1573,-0.156,-0.1524,-0.1503,-0.149,-0.1486,-0.147,-0.1469,-0.1462,-0.1471,-0.1482,-0.1516,-0.158,-0.1596,-0.1606,-0.165,-0.1698,-0.1701,-0.1725,-0.1732,-0.1664,-0.1653,-0.1653,-0.1653,-0.1653,0,-0.1629,-0.1581,-0.1548,-0.1517,-0.1462,-0.1458,-0.1411,-0.141,-0.1401,-0.1372,-0.1413,-0.1395,-0.1464,-0.1489,-0.1546,-0.1601,-0.1586,-0.1663,-0.1693,-0.1688,-0.1691,-0.1724,-0.1679,-0.1652,-0.1653,-0.1653,-0.1653,0,-0.1578,-0.1557,-0.1491,-0.1448,-0.1437,-0.1399,-0.1365,-0.1334,-0.1339,-0.1306,-0.1303,-0.1333,-0.1368,-0.1438,-0.15,-0.1562,-0.1632,-0.1643,-0.1625,-0.1652,-0.1709,-0.1657,-0.1678,-0.1763,-0.1683,-0.1684,-0.1684,0,-0.1537,-0.15,-0.1446,-0.1412,-0.1388,-0.1341,-0.1312,-0.1305,-0.1277,-0.1261,-0.124,-0.127,-0.1277,-0.1377,-0.15,-0.1595,-0.1635,-0.1652,-0.1683,-0.1683,-0.1647,-0.1703,-0.1778,-0.1667,-0.1667,-0.1667,-0.1667,0,-0.1463,-0.1452,-0.1405,-0.1345,-0.1303,-0.1254,-0.1213,-0.1186,-0.1175,-0.1139,-0.1108,-0.111,-0.1238,-0.1309,-0.1462,-0.1564,-0.1665,-0.166,-0.1661,-0.1611,-0.1662,-0.1769,-0.1697,-0.1668,-0.1668,-0.1668,-0.1668,-0.1668,-0.1407,-0.1366,-0.1317,-0.126,-0.1216,-0.116,-0.1102,-0.1054,-0.0991,-0.0872,-0.0951,-0.0839,-0.1027,-0.124,-0.1443,-0.167,-0.1689,-0.1699,-0.1631,-0.1688,-0.1774,-0.1698,-0.171,-0.171,-0.171,-0.171,-0.1711,0,-0.1323,-0.1287,-0.1231,-0.1152,-0.1092,-0.1094,-0.1025,-0.0943,-0.0833,-0.0672,-0.0601,-0.0503,-0.0742,-0.1004,-0.13,-0.1512,-0.1755,-0.1636,-0.1684,-0.1766,-0.1688,-0.1693,-0.17,-0.17,-0.17,-0.17,-0.17,-0.17,-0.127,-0.1198,-0.1177,-0.1056,-0.1006,-0.0894,-0.0846,-0.0721,-0.0584,-0.025,-0.0009,0.0105,0.0096,-0.0576,-0.1069,-0.1316,-0.1507,-0.1609,-0.1701,-0.1569,-0.157,-0.1572,-0.1571,-0.1552,-0.1551,-0.1887,-0.1888,-0.1889]}],[{"header":{"parameterUnit":"m.s-1","parameterCategory":2,"la1":30.2991,"la2":30.254,"lo1":-89.0895,"lo2":-89.0444,"dy":0.0017,"dx":0.0017,"nx":28,"ny":28,"refTime":"2025-12-11T09:00:00:Z","depth":"2","parameterNumber":2,"parameterNumberName":"U-component_of_CURRENTS"},"data":[0,0,0,0,0,0,0,0,0,0,0,0,0,0,0,0,0,0,0,0,0,0,0,0,0,0,0,0,0,0,0,0,0,0,0,0,0,0,0,0,0,0,0,0,0,0,0,0,0,0,0,0,0,0,0,0,0,0,0.0574,0.0574,0,0.0603,0.0603,0.0603,0.0598,0.0598,0.0597,0.0597,0.0542,0.0541,0.054,0,0,0,0,0,0,0,0,0,0,0,0,0,0.0514,0.0515,0.0574,0.0574,0.0575,0.0603,0.0603,0.0603,0.0598,0.0597,0.0597,0.0597,0.0543,0.0541,0.054,0,0,0,0,0,0,0,0,0,0,0,0,0,0.0538,0.0515,0.0574,0.0577,0.0578,0.0603,0.0603,0.0603,0.0598,0.0597,0.0597,0.0597,0.0543,0.0541,0.0539,0.0537,0,0,0.0534,0.0533,0,0,0,0,0,0,0,0,0.0537,0.054,0.0576,0.0577,0.0578,0.0599,0.0562,0.0578,0.0598,0.0588,0.0597,0.0596,0.0555,0.0553,0.0556,0.0534,0.0532,0.0534,0.0533,0.0532,0.0531,0,0,0,0,0,0,0,0.0535,0.0539,0.0583,0.0577,0.0578,0.0578,0.0581,0.0565,0.057,0.0588,0.0589,0.0597,0.0555,0.0558,0.0555,0.0531,0.0534,0.0532,0.0531,0.053,0.0578,0.058,0,0,0,0,0,0,0.0538,0.0538,0.0582,0.0584,0.0559,0.058,0.0583,0.059,0.0572,0.057,0.0597,0.0596,0.0561,0.0557,0.0553,0.0624,0.0532,0.053,0.0529,0.0575,0.0578,0.0581,0,0,0,0,0,0,0.0536,0.0541,0.0581,0.0563,0.0569,0.0582,0.059,0.0591,0.0608,0.058,0.0576,0.0614,0.0561,0.0555,0.0572,0.0619,0.0529,0.0528,0.0573,0.0576,0.0579,0.0718,0,0,0,0,0,0,0.0535,0.0541,0.055,0.0564,0.057,0.0611,0.0591,0.0592,0.0614,0.0614,0.0593,0.0587,0.056,0.0576,0.0571,0.0615,0.0526,0.057,0.0574,0.0578,0.0711,0.0726,0.0739,0,0,0,0,0,0.0532,0.0546,0.055,0.0556,0.0581,0.0613,0.0616,0.0622,0.0616,0.0633,0.0631,0.0588,0.0599,0.0576,0.057,0.0615,0.0567,0.0573,0.0578,0.0704,0.0723,0.0739,0,0,0,0,0,0,0.0524,0.0547,0.0552,0.0572,0.0599,0.0613,0.0629,0.0634,0.0647,0.0647,0.0615,0.0611,0.0645,0.061,0.0585,0.0642,0.0577,0.0581,0.0676,0.0693,0.0707,0.072,0.0525,0,0,0,0,0,0.0529,0.0544,0.057,0.0589,0.0604,0.0621,0.0635,0.0644,0.0656,0.0662,0.0655,0.0649,0.066,0.0661,0.0657,0.0682,0.0674,0.0708,0.0722,0.0734,0.0743,0.0779,0.0798,0.0598,0.0598,0.0598,0,0,0.0528,0.0546,0.0553,0.0589,0.0607,0.0646,0.0628,0.0661,0.0699,0.0652,0.07,0.0697,0.0679,0.072,0.0731,0.0697,0.0793,0.0741,0.0752,0.0753,0.0787,0.0806,0.0823,0.0601,0.0601,0.06,0,0,0.0542,0.0558,0.0579,0.061,0.0651,0.067,0.0686,0.0719,0.0739,0.0783,0.0771,0.0803,0.0802,0.0817,0.0818,0.0905,0.0869,0.0902,0.0984,0.1021,0.1038,0.1052,0.1095,0.1112,0.0908,0.0909,0.0909,0,0.0541,0.0577,0.0592,0.0631,0.0666,0.0687,0.0732,0.0761,0.0799,0.0832,0.0812,0.087,0.0852,0.092,0.0958,0.0938,0.0954,0.0922,0.1041,0.1055,0.1067,0.1107,0.1124,0.0916,0.0915,0.0914,0.0914,0,0.0575,0.0614,0.0635,0.0693,0.0733,0.0776,0.0825,0.0873,0.0899,0.093,0.1005,0.1003,0.1037,0.1047,0.1028,0.112,0.1104,0.1057,0.0999,0.1096,0.1131,0.1147,0.0926,0.0924,0.0922,0.092,0,0,0.055,0.0638,0.0649,0.0693,0.0772,0.0809,0.0891,0.0971,0.1029,0.1075,0.1152,0.1195,0.1202,0.1205,0.1198,0.1235,0.1347,0.1196,0.1195,0.1242,0.1448,0.1395,0.1406,0.1327,0.133,0.1332,0.1448,0,0.0576,0.0655,0.0698,0.079,0.084,0.0903,0.0976,0.1053,0.1111,0.119,0.1227,0.1286,0.126,0.1287,0.133,0.1335,0.139,0.1321,0.1343,0.1344,0.1287,0.1422,0.1172,0.125,0.1462,0.1465,0.1466,0,0.06,0.0654,0.0738,0.0851,0.0879,0.0935,0.1063,0.1134,0.1249,0.1294,0.1375,0.1398,0.1486,0.1429,0.152,0.1481,0.1487,0.1486,0.1489,0.1397,0.1318,0.1181,0.1269,0.1491,0.1489,0.1487,0.1486,0,0.0582,0.0688,0.0756,0.0794,0.0917,0.0973,0.1044,0.1163,0.1232,0.1365,0.1422,0.1521,0.1566,0.1604,0.1619,0.1582,0.1701,0.1635,0.1602,0.1598,0.1366,0.1336,0.1708,0.1708,0.1708,0.1708,0.1707,0,0.0602,0.0659,0.0749,0.079,0.0874,0.0968,0.1069,0.1157,0.1281,0.1369,0.1468,0.154,0.1611,0.1681,0.168,0.1706,0.1755,0.1654,0.1637,0.141,0.1385,0.1557,0.1538,0.1712,0.1711,0.171,0.1709,0,0.0587,0.0644,0.072,0.0832,0.0866,0.0928,0.1061,0.1138,0.1262,0.1382,0.1431,0.1579,0.1684,0.1748,0.1816,0.1774,0.1799,0.1789,0.1531,0.1482,0.166,0.1647,0.1779,0.1779,0.1778,0.1778,0.1777,0,0.0593,0.0628,0.0722,0.0755,0.0805,0.09,0.0968,0.1108,0.1191,0.139,0.1443,0.16,0.1654,0.176,0.1722,0.1742,0.1832,0.1561,0.1439,0.1704,0.1674,0.1662,0.1649,0.1197,0.1192,0.1188,0.1184,0,0.0602,0.0622,0.0677,0.0733,0.0793,0.0872,0.0978,0.103,0.1206,0.129,0.1417,0.1469,0.1555,0.1474,0.1522,0.1485,0.1538,0.1478,0.1834,0.1217,0.1164,0.1131,0.1137,0.1147,0.1151,0.1153,0.1155,0.1157,0.0599,0.0621,0.0673,0.0731,0.0781,0.0845,0.0899,0.0979,0.1069,0.1154,0.1254,0.1247,0.1223,0.1151,0.1187,0.1244,0.1305,0.1235,0.1244,0.1258,0.1169,0.1118,0.1077,0.108,0.1083,0.1085,0.1088,0,0.0619,0.0639,0.0679,0.0744,0.0782,0.082,0.0914,0.0924,0.0966,0.0973,0.0988,0.0829,0.0747,0.0864,0.0838,0.0852,0.0805,0.089,0.0795,0.0826,0.0855,0.0746,0.0542,0.0543,0.0543,0.0544,0,0,0.0636,0.0672,0.0695,0.0746,0.0775,0.0827,0.0864,0.0818,0.0802,0.0704,0.0648,0.0535,0.0648,0.0516,0.0525,0.0572,0.0703,0.0545,0.094,0.0844,0.0875,0.0972,0.0827,0,0,0,0,0]},{"header":{"parameterUnit":"m.s-1","parameterCategory":2,"la1":30.2991,"la2":30.254,"lo1":-89.0895,"lo2":-89.0444,"dy":0.0017,"dx":0.0017,"nx":28,"ny":28,"refTime":"2025-12-11T09:00:00:Z","depth":"2","parameterNumber":3,"parameterNumberName":"V-component_of_CURRENTS"},"data":[0,0,0,0,0,0,0,0,0,0,0,0,0,0,0,0,0,0,0,0,0,0,0,0,0,0,0,0,0,0,0,0,0,0,0,0,0,0,0,0,0,0,0,0,0,0,0,0,0,0,0,0,0,0,0,0,0,0,0.0506,0.0505,0,0.0381,0.038,0.0379,0.0275,0.0274,0.0273,0.0272,0.0091,0.0087,0.0083,0,0,0,0,0,0,0,0,0,0,0,0,0,0.063,0.0629,0.0506,0.0505,0.0503,0.0382,0.038,0.0378,0.0276,0.0274,0.0273,0.0272,0.0092,0.0087,0.0083,0,0,0,0,0,0,0,0,0,0,0,0,0,0.0548,0.0628,0.0507,0.0437,0.043,0.0382,0.038,0.0378,0.0276,0.0274,0.0273,0.0271,0.0093,0.0088,0.0082,0.0079,0,0,0.0064,0.0062,0,0,0,0,0,0,0,0,0.0553,0.0544,0.0449,0.0442,0.0434,0.0342,0.0357,0.0275,0.0276,0.0334,0.0272,0.027,0.0171,0.0159,0.0139,0.0071,0.0063,0.0064,0.006,0.0058,0.0056,0,0,0,0,0,0,0,0.0559,0.0548,0.0457,0.0448,0.0438,0.0404,0.0391,0.0341,0.0262,0.0329,0.0321,0.0308,0.0166,0.0145,0.0134,0.006,0.0064,0.0059,0.0055,0.0053,-0.011,-0.0111,0,0,0,0,0,0,0.0577,0.0554,0.0461,0.0453,0.0491,0.0403,0.0388,0.0373,0.0264,0.0246,0.031,0.0304,0.0156,0.0141,0.0127,0.007,0.0058,0.0053,0.0049,-0.0109,-0.011,-0.0111,0,0,0,0,0,0,0.058,0.057,0.0466,0.0501,0.0485,0.0403,0.0387,0.0372,0.0334,0.0249,0.023,0.0286,0.0154,0.0135,0.0063,0.0064,0.005,0.0045,-0.0108,-0.0109,-0.011,-0.0013,0,0,0,0,0,0,0.0585,0.0572,0.0567,0.0502,0.0484,0.0439,0.0388,0.037,0.0329,0.032,0.0223,0.0205,0.0151,0.0072,0.0058,0.0056,0.004,-0.0107,-0.0108,-0.011,-0.0015,-0.0011,-0.0008,0,0,0,0,0,0.0589,0.0592,0.0567,0.0556,0.0479,0.0439,0.0427,0.0363,0.033,0.0321,0.0243,0.0207,0.0051,0.0067,0.005,0.0047,-0.0106,-0.0108,-0.011,-0.0017,-0.0012,-0.0008,0,0,0,0,0,0,0.0641,0.058,0.0551,0.0534,0.049,0.0422,0.0408,0.0365,0.0299,0.0284,0.0199,0.0177,0.0111,0.0063,0.0083,-0.0009,-0.0035,-0.004,0.0042,0.0046,0.005,0.0091,0.0036,0,0,0,0,0,0.0653,0.0638,0.0576,0.0562,0.0544,0.0477,0.0451,0.0409,0.0345,0.0313,0.0244,0.0165,0.0094,0.0057,-0.0009,-0.005,-0.009,-0.0068,-0.0064,-0.006,-0.0041,-0.0118,-0.0119,-0.0117,-0.0117,-0.0117,0,0,0.0668,0.0634,0.0623,0.0573,0.0534,0.0519,0.0457,0.0424,0.0405,0.0306,0.0255,0.0177,0.0083,0.0029,-0.0004,-0.0013,-0.0079,-0.0062,-0.0058,-0.0041,-0.012,-0.012,-0.012,-0.0119,-0.0119,-0.0118,0,0,0.0703,0.0663,0.0665,0.0637,0.0587,0.0549,0.0541,0.0472,0.0433,0.038,0.0295,0.0218,0.0123,0.0055,0.0008,-0.0006,-0.0059,-0.0034,0.0025,-0.005,-0.005,-0.005,-0.008,-0.0084,-0.0028,-0.0027,-0.0027,0,0.072,0.0715,0.0661,0.066,0.0645,0.0567,0.0573,0.0526,0.044,0.0414,0.0376,0.0219,0.0139,0.0064,0.0053,0.0007,-0.0031,0.0022,-0.0041,-0.0042,-0.0044,-0.0076,-0.0081,-0.0023,-0.0024,-0.0024,-0.0024,0,0.0756,0.0752,0.0755,0.0728,0.0707,0.0699,0.0638,0.0607,0.0552,0.0498,0.0414,0.0299,0.0211,0.0164,0.0105,0.0046,0.0026,-0.0026,-0.004,-0.0038,-0.0072,-0.0079,-0.0017,-0.0018,-0.002,-0.0021,0,0,0.0788,0.0782,0.0781,0.0793,0.0745,0.0736,0.0714,0.0672,0.066,0.0562,0.0532,0.0396,0.0332,0.0274,0.018,0.011,0.0061,0.0048,0.0042,0.0042,-0.0073,-0.0052,-0.0058,-0.0005,-0.0006,-0.0007,-0.0082,0,0.083,0.0865,0.0842,0.0871,0.0883,0.0827,0.0819,0.0769,0.071,0.0661,0.0535,0.0466,0.0374,0.0332,0.0246,0.0095,0.0042,0.0088,-0.0096,-0.01,-0.0064,-0.0067,-0.0055,-0.0118,-0.009,-0.0091,-0.0092,0,0.0867,0.089,0.0936,0.0956,0.0956,0.0961,0.0944,0.0928,0.0842,0.0793,0.0704,0.0602,0.0481,0.0403,0.0186,0.0219,0.0096,-0.0015,-0.0022,-0.0038,-0.0094,-0.0125,-0.0133,-0.0105,-0.0104,-0.0103,-0.0102,0,0.0923,0.0953,0.1001,0.1004,0.1009,0.1024,0.1023,0.0969,0.096,0.088,0.0856,0.0699,0.0617,0.0437,0.0212,0.0196,-0.0021,-0.0076,-0.0161,-0.016,-0.0202,-0.0202,-0.0205,-0.0205,-0.0205,-0.0205,-0.0205,0,0.0974,0.1009,0.1037,0.1061,0.1115,0.11,0.1136,0.1108,0.1072,0.1059,0.0934,0.0877,0.0617,0.0455,0.0255,0.0035,0.0013,-0.0136,-0.0182,-0.0166,-0.0162,-0.0201,-0.0199,-0.0208,-0.0207,-0.0207,-0.0206,0,0.1018,0.1036,0.1093,0.113,0.1143,0.1184,0.1214,0.1234,0.1199,0.118,0.1162,0.1,0.0796,0.0552,0.0255,0.0103,-0.0117,-0.0186,-0.012,-0.0156,-0.0209,-0.0202,-0.0276,-0.0276,-0.0276,-0.0276,-0.0276,0,0.1041,0.108,0.1144,0.1179,0.1199,0.1254,0.1287,0.1288,0.1306,0.1241,0.1231,0.1062,0.0914,0.0531,0.0254,-0.0038,-0.0112,-0.0207,-0.0236,-0.0181,-0.0219,-0.0212,-0.0205,-0.0253,-0.0253,-0.0253,-0.0253,0,0.1083,0.1108,0.1151,0.1225,0.1279,0.1345,0.1394,0.1425,0.1417,0.1392,0.132,0.1208,0.089,0.0559,0.0206,0.0024,-0.0156,-0.0209,-0.0205,-0.0222,-0.0162,-0.0198,-0.0192,-0.0252,-0.0252,-0.0252,-0.0252,-0.0252,0.1096,0.1136,0.119,0.1259,0.1328,0.1406,0.1456,0.1492,0.1513,0.1419,0.1343,0.1091,0.077,0.0246,0.0053,-0.0111,-0.0113,-0.0255,-0.0255,-0.0256,-0.0224,-0.0167,-0.0249,-0.0249,-0.0249,-0.0249,-0.0249,0,0.1095,0.1139,0.1214,0.1297,0.1375,0.141,0.1499,0.1519,0.1531,0.1343,0.1227,0.0764,0.0459,0.0161,-0.0057,-0.0199,-0.0194,-0.027,-0.0269,-0.0269,-0.027,-0.0239,-0.0268,-0.0268,-0.0269,-0.0269,0,0,0.109,0.1146,0.1193,0.1306,0.137,0.1462,0.1513,0.1528,0.1417,0.1143,0.0881,0.0605,0.0306,0.006,-0.0088,-0.0165,-0.0182,-0.0173,-0.0143,-0.0122,-0.0121,-0.0245,-0.0195,0,0,0,0,0]}],[{"header":{"parameterUnit":"m.s-1","parameterCategory":2,"la1":30.2991,"la2":30.254,"lo1":-89.0895,"lo2":-89.0444,"dy":0.0017,"dx":0.0017,"nx":28,"ny":28,"refTime":"2025-12-11T09:00:00:Z","depth":"4","parameterNumber":2,"parameterNumberName":"U-component_of_CURRENTS"},"data":[0,0,0,0,0,0,0,0,0,0,0,0,0,0,0,0,0,0,0,0,0,0,0,0,0,0,0,0,0,0,0,0,0,0,0,0,0,0,0,0,0,0,0,0,0,0,0,0,0,0,0,0,0,0,0,0,0,0,-0.0031,-0.0031,0,-0.0013,-0.0013,-0.0012,0.0016,0.0017,0.0017,0.0018,0.0052,0.0052,0.0053,0,0,0,0,0,0,0,0,0,0,0,0,0,-0.0053,-0.0053,-0.0031,-0.0031,-0.0031,-0.0013,-0.0013,-0.0012,0.0016,0.0017,0.0018,0.0018,0.0052,0.0052,0.0053,0,0,0,0,0,0,0,0,0,0,0,0,0,-0.004,-0.0053,-0.0031,-0.0015,-0.0013,-0.0013,-0.0013,-0.0012,0.0016,0.0017,0.0018,0.0018,0.0051,0.0052,0.0053,0.0044,0,0,0.0055,0.0055,0,0,0,0,0,0,0,0,-0.004,-0.0039,-0.0018,-0.0016,-0.0014,-0.0,-0.0008,0.0007,0.0016,0.0006,0.0018,0.0019,0.0035,0.0037,0.004,0.0045,0.0047,0.0055,0.0056,0.0056,0.0056,0,0,0,0,0,0,0,-0.0041,-0.0039,-0.0023,-0.0017,-0.0015,-0.0013,-0.001,-0.0005,0.0017,0.0007,0.0009,0.0009,0.0036,0.0039,0.0041,0.0047,0.0055,0.0056,0.0056,0.0056,0.0036,0.0035,0,0,0,0,0,0,-0.0045,-0.004,-0.0024,-0.0023,-0.0027,-0.0013,-0.001,-0.0005,0.0017,0.002,0.0009,0.0011,0.0037,0.004,0.0042,0.0034,0.0056,0.0056,0.0057,0.0037,0.0036,0.0035,0,0,0,0,0,0,-0.0046,-0.0044,-0.0025,-0.0032,-0.0029,-0.0013,-0.0008,-0.0005,0.0003,0.0018,0.0022,0.0014,0.0038,0.0041,0.0044,0.0036,0.0057,0.0057,0.0038,0.0037,0.0035,0.0017,0,0,0,0,0,0,-0.0046,-0.0044,-0.0043,-0.0032,-0.0029,-0.0023,-0.0009,-0.0005,0.0002,0.0005,0.0024,0.0028,0.0039,0.0043,0.0045,0.0037,0.0058,0.0039,0.0038,0.0036,0.0019,0.0015,0.0012,0,0,0,0,0,-0.0047,-0.0048,-0.0043,-0.0041,-0.0027,-0.0024,-0.0022,-0.0008,0.0002,0.0003,0.0013,0.0027,0.0033,0.0043,0.0045,0.0037,0.004,0.0038,0.0036,0.002,0.0016,0.0012,0,0,0,0,0,0,-0.0056,-0.0045,-0.0039,-0.0036,-0.003,-0.0019,-0.0018,-0.0009,-0.0,0.0004,0.002,0.0023,0.0019,0.0028,0.0039,0.0023,0.0037,0.0035,0.0024,0.002,0.0016,0.0014,0.0059,0,0,0,0,0,-0.0059,-0.0056,-0.0046,-0.0044,-0.0042,-0.003,-0.0027,-0.0017,-0.0009,-0.0004,0.0008,0.0014,0.001,0.0016,0.0015,0.0013,0.0017,0.0006,0.0002,-0.0,-0.0003,-0.0016,-0.002,0.0028,0.0028,0.0028,0,0,-0.0063,-0.0057,-0.0054,-0.0047,-0.004,-0.0039,-0.0026,-0.0021,-0.0021,-0.0003,0.0002,0.0002,0.0004,-0.0002,-0.0003,0.0008,-0.0011,-0.0003,-0.0006,-0.0006,-0.0018,-0.0023,-0.0027,0.0026,0.0026,0.0027,0,0,-0.0069,-0.0063,-0.0062,-0.0058,-0.0051,-0.0046,-0.0044,-0.0033,-0.0028,-0.0027,-0.0021,-0.0031,-0.002,-0.0029,-0.0031,-0.0056,-0.0033,-0.0051,-0.0062,-0.0075,-0.0078,-0.0082,-0.0074,-0.0076,-0.0047,-0.0047,-0.0047,0,-0.0072,-0.0069,-0.0062,-0.0062,-0.006,-0.0049,-0.0049,-0.0047,-0.0036,-0.0037,-0.0027,-0.0039,-0.0039,-0.0058,-0.0066,-0.0065,-0.0054,-0.0043,-0.0078,-0.0081,-0.0084,-0.0076,-0.0078,-0.0048,-0.0048,-0.0048,-0.0048,0,-0.0077,-0.0075,-0.0076,-0.007,-0.007,-0.0068,-0.0065,-0.0064,-0.0057,-0.0055,-0.0069,-0.0074,-0.0079,-0.0086,-0.008,-0.0104,-0.0083,-0.0084,-0.0064,-0.009,-0.0079,-0.0081,-0.005,-0.005,-0.0049,-0.0049,0,0,-0.0076,-0.0078,-0.0077,-0.0076,-0.0073,-0.0072,-0.0079,-0.0081,-0.0083,-0.0084,-0.0092,-0.0113,-0.0111,-0.0115,-0.0115,-0.0127,-0.0141,-0.0108,-0.0108,-0.0093,-0.0146,-0.0081,-0.0077,-0.0138,-0.0139,-0.014,-0.0126,0,-0.0078,-0.0079,-0.0081,-0.0084,-0.0082,-0.0082,-0.0089,-0.0092,-0.0093,-0.0098,-0.0116,-0.0122,-0.0123,-0.0121,-0.0138,-0.0143,-0.0149,-0.0144,-0.0129,-0.0128,-0.0062,-0.0079,-0.0142,-0.0127,-0.0128,-0.0128,-0.0128,0,-0.0079,-0.0079,-0.008,-0.0086,-0.0085,-0.0086,-0.0092,-0.0097,-0.011,-0.011,-0.0124,-0.0126,-0.015,-0.0145,-0.0168,-0.0157,-0.0152,-0.0155,-0.0155,-0.009,-0.0068,-0.0099,-0.0132,-0.0132,-0.0131,-0.0131,-0.0131,0,-0.0075,-0.0078,-0.0078,-0.0079,-0.0085,-0.0086,-0.0087,-0.0096,-0.0102,-0.0112,-0.0115,-0.0139,-0.0145,-0.0158,-0.0159,-0.0158,-0.0174,-0.0177,-0.0115,-0.011,-0.0163,-0.016,-0.0192,-0.0192,-0.0192,-0.0192,-0.0192,0,-0.0072,-0.0075,-0.0073,-0.0074,-0.0072,-0.0078,-0.0081,-0.0085,-0.0097,-0.0099,-0.0115,-0.0115,-0.0147,-0.0154,-0.0159,-0.0135,-0.0173,-0.0116,-0.0105,-0.017,-0.0168,-0.0163,-0.016,-0.0191,-0.0191,-0.0191,-0.0191,0,-0.0071,-0.007,-0.0073,-0.0074,-0.007,-0.0068,-0.007,-0.0076,-0.0083,-0.0087,-0.0087,-0.0101,-0.009,-0.0112,-0.0126,-0.0122,-0.0117,-0.0098,-0.0151,-0.0143,-0.0043,-0.0042,-0.003,-0.0027,-0.0025,-0.0024,-0.0022,0,-0.0069,-0.007,-0.0069,-0.0061,-0.0058,-0.0054,-0.0053,-0.0064,-0.0064,-0.0067,-0.0065,-0.0056,-0.0057,-0.0032,-0.0053,-0.0048,-0.0045,-0.0048,-0.0062,-0.0038,-0.0029,-0.003,-0.0031,-0.0019,-0.0019,-0.0018,-0.0018,0,-0.0071,-0.0073,-0.0076,-0.0055,-0.0048,-0.0045,-0.0038,-0.0032,-0.0039,-0.0055,-0.0024,-0.0009,0.0011,0.0013,0.0021,0.0019,-0.0055,-0.0027,-0.0032,-0.0045,-0.0025,-0.0018,-0.0021,-0.0011,-0.0012,-0.0012,-0.0013,0,-0.0075,-0.0076,-0.0073,-0.0057,-0.0039,-0.002,-0.0024,-0.0008,-0.0008,-0.0003,0.0014,0.0026,0.0023,0.0051,0.0054,0.0065,0.0067,0.0053,0.0044,0.0037,0.0053,0.0088,0.0148,0,0,0,0,0,-0.0073,-0.0078,-0.0069,-0.0046,-0.0023,-0.0012,-0.0006,-0.0012,-0.001,0.0022,0.0021,0.005,0.0083,0.0087,0.0114,0.0088,0.0061,0.012,0.0038,0.0027,0.0019,0.0033,0,0,0,0,0,0,-0.0074,-0.0073,-0.0076,-0.0035,-0.0008,0.0012,0.002,0.0016,0.0038,0.0043,0.0062,0.0061,0.0089,0.0073,0.0117,0.0119,0.0072,0.0126,0.0127,0.0031,0.0024,0.0018,0.0029,0,0,0,0,0]},{"header":{"parameterUnit":"m.s-1","parameterCategory":2,"la1":30.2991,"la2":30.254,"lo1":-89.0895,"lo2":-89.0444,"dy":0.0017,"dx":0.0017,"nx":28,"ny":28,"refTime":"2025-12-11T09:00:00:Z","depth":"4","parameterNumber":3,"parameterNumberName":"V-component_of_CURRENTS"},"data":[0,0,0,0,0,0,0,0,0,0,0,0,0,0,0,0,0,0,0,0,0,0,0,0,0,0,0,0,0,0,0,0,0,0,0,0,0,0,0,0,0,0,0,0,0,0,0,0,0,0,0,0,0,0,0,0,0,0,0.0131,0.0131,0,0.0102,0.0102,0.0102,0.0115,0.0116,0.0116,0.0117,0.0097,0.0096,0.0095,0,0,0,0,0,0,0,0,0,0,0,0,0,0.018,0.0179,0.0131,0.0131,0.013,0.0102,0.0102,0.0102,0.0115,0.0116,0.0117,0.0117,0.0098,0.0096,0.0095,0,0,0,0,0,0,0,0,0,0,0,0,0,0.0156,0.0178,0.0131,0.0133,0.0133,0.0102,0.0102,0.0102,0.0115,0.0116,0.0117,0.0118,0.0098,0.0096,0.0095,0.0062,0,0,0.0089,0.0088,0,0,0,0,0,0,0,0,0.0157,0.0154,0.0133,0.0133,0.0133,0.0113,0.0112,0.0089,0.0114,0.0122,0.0117,0.0118,0.0103,0.0101,0.0093,0.0061,0.0061,0.0089,0.0088,0.0087,0.0087,0,0,0,0,0,0,0,0.0159,0.0155,0.012,0.0133,0.0133,0.013,0.0128,0.0107,0.0107,0.0121,0.0122,0.0118,0.0103,0.0094,0.0092,0.006,0.0089,0.0088,0.0086,0.0086,0.0007,0.0006,0,0,0,0,0,0,0.0161,0.0156,0.0121,0.0119,0.0148,0.0128,0.0126,0.0119,0.0107,0.0106,0.0118,0.0119,0.0097,0.0094,0.0092,0.0055,0.0087,0.0086,0.0085,0.0008,0.0007,0.0006,0,0,0,0,0,0,0.0163,0.0158,0.0122,0.0137,0.0133,0.0126,0.0118,0.0117,0.0114,0.0104,0.0104,0.0116,0.0098,0.0094,0.007,0.0055,0.0085,0.0083,0.001,0.0008,0.0007,-0.002,0,0,0,0,0,0,0.0164,0.0159,0.0153,0.0137,0.0132,0.0101,0.0117,0.0116,0.011,0.0112,0.0102,0.0101,0.0098,0.0072,0.0068,0.0053,0.0082,0.0011,0.0009,0.0007,-0.0018,-0.0022,-0.0026,0,0,0,0,0,0.0166,0.0151,0.0153,0.0149,0.0124,0.0101,0.0097,0.0097,0.0109,0.01,0.0092,0.0101,0.0057,0.0069,0.0065,0.0049,0.0012,0.0009,0.0007,-0.0016,-0.0021,-0.0026,0,0,0,0,0,0,0.0167,0.0151,0.0152,0.0133,0.0119,0.0103,0.0094,0.0095,0.0081,0.0086,0.0084,0.0081,0.0054,0.0052,0.0065,0.002,0.0037,0.0034,0.0021,0.0016,0.0012,0.001,0.008,0,0,0,0,0,0.0165,0.0152,0.0136,0.0121,0.0114,0.0105,0.0096,0.0094,0.0081,0.0077,0.0068,0.0057,0.0037,0.0029,0.0012,-0.0016,-0.001,-0.0029,-0.0033,-0.0036,-0.0042,-0.005,-0.0055,-0.0001,-0.0001,-0.0001,0,0,0.0161,0.0151,0.0143,0.012,0.0112,0.0089,0.0102,0.0086,0.0066,0.0075,0.0047,0.004,0.0026,-0.0004,-0.0016,-0.0006,-0.0047,-0.0039,-0.0042,-0.0046,-0.0053,-0.0058,-0.0062,-0.0003,-0.0003,-0.0002,0,0,0.0144,0.0138,0.0122,0.0107,0.009,0.0079,0.0075,0.0057,0.005,0.0018,0.0021,0.0002,-0.0026,-0.0041,-0.0052,-0.0092,-0.007,-0.009,-0.0112,-0.0119,-0.0123,-0.0127,-0.0117,-0.0119,-0.009,-0.009,-0.009,0,0.0143,0.0117,0.0113,0.0091,0.0075,0.0074,0.0048,0.0034,0.0009,-0.0004,0.0006,-0.004,-0.0049,-0.0087,-0.0097,-0.0102,-0.009,-0.009,-0.0123,-0.0127,-0.013,-0.0119,-0.0122,-0.0091,-0.0091,-0.0091,-0.0091,0,0.011,0.009,0.0078,0.0051,0.0032,0.001,-0.001,-0.0027,-0.0034,-0.0048,-0.0082,-0.0096,-0.012,-0.0126,-0.0124,-0.0154,-0.0133,-0.0128,-0.0108,-0.0137,-0.0123,-0.0125,-0.0094,-0.0093,-0.0092,-0.0092,0,0,0.0103,0.0063,0.0061,0.004,0.0009,-0.0011,-0.0045,-0.0079,-0.0098,-0.0119,-0.0147,-0.0181,-0.0175,-0.0186,-0.0184,-0.0189,-0.02,-0.0165,-0.0165,-0.015,-0.0198,-0.0213,-0.0216,-0.0193,-0.0193,-0.0194,-0.0175,0,0.0079,0.0035,0.0019,-0.0027,-0.0055,-0.0069,-0.0101,-0.0129,-0.0146,-0.0173,-0.0187,-0.0212,-0.0201,-0.0207,-0.0215,-0.0206,-0.0208,-0.0205,-0.0177,-0.0176,-0.0182,-0.0221,-0.0196,-0.0177,-0.0177,-0.0177,-0.0178,0,0.0048,0.0022,-0.0023,-0.0069,-0.0081,-0.0107,-0.015,-0.0179,-0.0213,-0.0224,-0.0246,-0.0249,-0.027,-0.0251,-0.0253,-0.0245,-0.0227,-0.0215,-0.0214,-0.0222,-0.0197,-0.0145,-0.0181,-0.0181,-0.0181,-0.018,-0.018,0,0.0038,-0.001,-0.0045,-0.0063,-0.0112,-0.0133,-0.0158,-0.0194,-0.0218,-0.0252,-0.0263,-0.0287,-0.029,-0.0284,-0.0263,-0.0254,-0.0252,-0.0238,-0.0234,-0.0234,-0.021,-0.0206,-0.0241,-0.0241,-0.0242,-0.0242,-0.0242,0,0.0007,-0.0023,-0.005,-0.0074,-0.0115,-0.0143,-0.0184,-0.0211,-0.0242,-0.0264,-0.0283,-0.0293,-0.0296,-0.0293,-0.0274,-0.0264,-0.0262,-0.025,-0.0241,-0.022,-0.0218,-0.021,-0.0207,-0.0241,-0.0241,-0.0241,-0.0241,0,-0.0016,-0.0031,-0.0074,-0.0113,-0.0125,-0.0155,-0.0197,-0.0225,-0.0247,-0.0273,-0.0282,-0.0299,-0.0298,-0.0297,-0.0283,-0.0277,-0.0268,-0.0261,-0.0235,-0.0222,-0.0238,-0.0236,-0.0262,-0.0263,-0.0263,-0.0264,-0.0264,0,-0.0041,-0.006,-0.0094,-0.0112,-0.0132,-0.017,-0.0197,-0.0229,-0.0244,-0.0268,-0.0273,-0.0288,-0.0295,-0.0284,-0.0289,-0.0278,-0.0271,-0.0266,-0.0265,-0.0257,-0.0245,-0.0242,-0.024,-0.0265,-0.0265,-0.0265,-0.0265,0,-0.0086,-0.0084,-0.0113,-0.0136,-0.0162,-0.0199,-0.0225,-0.0228,-0.0252,-0.0268,-0.0261,-0.0272,-0.0275,-0.0279,-0.028,-0.0267,-0.0277,-0.0271,-0.027,-0.0269,-0.026,-0.0247,-0.0244,-0.0267,-0.0267,-0.0267,-0.0267,0,-0.0112,-0.0131,-0.0145,-0.0164,-0.0191,-0.021,-0.0229,-0.0234,-0.0248,-0.0248,-0.0242,-0.0253,-0.0259,-0.0272,-0.0269,-0.0274,-0.027,-0.0262,-0.0261,-0.0259,-0.0273,-0.0262,-0.0273,0,0,0,0,0,-0.0139,-0.0148,-0.0172,-0.0188,-0.0206,-0.0217,-0.0239,-0.0248,-0.0244,-0.0234,-0.0235,-0.0234,-0.0248,-0.0256,-0.0263,-0.0287,-0.0282,-0.0296,-0.0273,-0.0277,-0.0275,-0.0296,0,0,0,0,0,0,-0.0161,-0.018,-0.0176,-0.019,-0.0195,-0.0222,-0.0232,-0.0237,-0.0222,-0.0215,-0.0217,-0.0227,-0.0238,-0.0233,-0.0255,-0.0261,-0.0247,-0.0305,-0.0305,-0.0279,-0.0277,-0.0275,-0.0295,0,0,0,0,0]}]]